Location: Observatoire
(46.1952°N, 5.3391°E)
Time: 22:29:40
(UTC+01:00)

Vanguard 1 Rocket - Visible Passes

Search period start: 17 February 2026 00:00
Search period end: 27 February 2026 00:00
Orbit: 652 x 4215 km, 34.3° (Epoch: 16 February)

Date Brightness Start Highest point End Pass type
(mag) Time Alt. Az. Time Alt. Az. Time Alt. Az.
17 Feb 11.2 18:57:00 10° W 19:13:41 44° SSW 19:36:56 10° SE visible
17 Feb 11.7 21:27:21 10° W 21:42:32 22° SW 21:59:18 10° S visible
18 Feb 11.5 20:11:34 10° W 20:28:01 31° SW 20:48:23 10° SSE visible
19 Feb 11.3 18:57:31 10° W 19:13:14 39° SSW 19:35:22 10° SSE visible
19 Feb 11.8 21:29:24 10° W 21:41:44 17° SW 21:55:23 10° SSW visible
20 Feb 11.7 20:12:36 10° W 20:27:23 26° SW 20:45:48 10° S visible
21 Feb 11.4 18:58:12 10° W 19:12:49 34° SSW 19:33:26 10° SSE visible
21 Feb 12.0 21:33:24 10° WSW 21:41:02 12° SW 21:49:16 10° SSW visible
22 Feb 11.8 20:14:10 10° W 20:26:52 21° SW 20:42:28 10° S visible
23 Feb 11.6 18:59:09 10° W 19:12:28 28° SSW 19:31:03 10° SSE visible
24 Feb 12.0 20:16:44 10° WSW 20:26:25 15° SW 20:37:51 10° SSW visible
25 Feb 11.8 19:00:29 10° WSW 19:12:12 23° SW 19:28:05 10° S visible
26 Feb 12.2 20:23:28 10° SW 20:26:04 10° SW 20:28:48 10° SW visible
